Terminal Aerodrome Forecast
Issued by NWS Wakefield, VA

Home | Current Version | Previous Version | Text Only | Print | Product List | Glossary On
Versions: 1 2 3 4 5 6 7 8 9 10 11 12 13 14 15 16 17 18 19 20 21
000
FTUS41 KAKQ 180539
TAFSBY
TAF
KSBY 180539Z 1806/1906 33003KT P6SM SCT050 BKN100
     FM180800 35003KT 4SM BR SCT100
      TEMPO 1809/1812 00000KT 2SM BR SCT002
     FM181400 03008KT P6SM SCT250
     FM182000 31006KT P6SM SKC=

USA.gov is the U.S. government's official web portal to all federal, state and local government web resources and services.